Regional Weather Roundup
Issued by NWS Burlington, VT

Home | Current Version | Previous Version | Text Only | Print | Product List | Glossary On
Versions: 1 2 3 4 5 6 7 8 9 10 11 12 13 14 15 16 17 18 19 20 21 22 23 24 25 26 27 28 29 30 31 32 33 34 35 36 37 38 39 40 41 42 43 44 45 46 47 48 49 50
000
ASUS41 KBTV 231630
RWRBTV
VERMONT REGIONAL WEATHER ROUNDUP
NATIONAL WEATHER SERVICE BURLINGTON VT
1100 AM EST SUN NOV 23 2014

NOTE: "FAIR" INDICATES FEW OR NO CLOUDS BELOW 12,000 FEET WITH NO
SIGNIFICANT WEATHER AND/OR OBSTRUCTIONS TO VISIBILITY.

* THESE REPORTS ARE NOT UNDER NWS QUALITY CONTROL AND/OR DO NOT
  REPORT WEATHER SUCH AS PRECIPITATION AND FOG.

VTZ001>019-231700-
_____VERMONT_____


CITY           SKY/WX    TMP DP  RH WIND       PRES   REMARKS
BURLINGTON     CLOUDY    45  37  73 S8        30.06F
MONTPELIER     CLOUDY    45  39  79 CALM      30.08S
ST. JOHNSBURY*   N/A     38  36  92 MISG      30.05S
LYNDONVILLE*   FOG       37  35  92 CALM      30.05F VSB 3/4
MIDDLEBURY*    CLOUDY    46  38  75 S7        30.07F
RUTLAND*       CLOUDY    48  39  71 SW6       30.07F
SPRINGFIELD    PTSUNNY   49  41  74 VRB3      30.09F
HIGHGATE*      CLOUDY    42  39  90 S5        30.04F
NEWPORT*       CLOUDY    40  38  93 S3        30.03F
BENNINGTON     CLOUDY    48  40  73 CALM      30.11F
SUTTON*          N/A     36 N/A N/A MISG        N/A
GALLUP MILLS*    N/A     34 N/A N/A MISG        N/A
UNION VILLAGE*   N/A     41 N/A N/A MISG        N/A
MT. MANSFIELD*   N/A     32 N/A N/A NW16G28     N/A

_____LAKE CHAMPLAIN_____


CITY           SKY/WX    TMP DP  RH WIND       PRES   REMARKS
BURTON ISLAND*   N/A     43  39  87 S14         N/A
COLCHESTER RF*   N/A     43  39  87 S20         N/A
DIAMOND ISL*     N/A     43  37  81 S8          N/A

$$

NYZ007-026>031-035-052-083-231700-
_____NORTHERN NEW YORK_____


CITY           SKY/WX    TMP DP  RH WIND       PRES   REMARKS
PLATTSBURGH    CLOUDY    44  39  82 SE5       30.04F
SARANAC LAKE   FOG       39  39 100 SW8       30.00F VSB 1/2
MASSENA        CLOUDY    45  45 100 S8        30.04S FOG
OGDENSBURG*    CLOUDY    46  45  93 S5        30.02S
POTSDAM*       CLOUDY    46  45  93 SW6       30.02F
STARK FALLS*     N/A     41 N/A N/A S8          N/A
WATERTOWN      FAIR      52  40  63 S7        30.03F
FT DRUM        CLOUDY    43  40  91 SW8       30.03S
ALBANY         FAIR      48  28  46 S8        30.13F
GLENS FALLS    CLOUDY    42  32  67 S7        30.11F

$$
NHZ002-005-011-231700-
_____NEW HAMPSHIRE_____


CITY           SKY/WX    TMP DP  RH WIND       PRES   REMARKS
LEBANON        CLOUDY    50  40  68 S8        30.07F
KEENE          CLOUDY    48  32  53 N3        30.11F
MT WASHINGTON  FOG       27  27 100 W62         N/A  VSB 0   WCI   5
PLYMOUTH       CLOUDY    45  44  98 CALM      30.06F
WHITEFIELD     CLOUDY    42  38  85 W3        30.05S

$$

_____REGIONAL QUEBEC LOCATIONS_____


CITY           SKY/WX    TMP DP  RH WIND       PRES   REMARKS
MONTREAL       FOG       41  41 100 S6        30.03S VSB 3/4
QUEBEC CITY    CLOUDY    36  34  93 SW13      30.01R FOG
SHERBROOKE     FOG       39  39 100 SW3       30.03S VSB 1

_____REGIONAL ONTARIO LOCATIONS_____


CITY           SKY/WX    TMP DP  RH WIND       PRES   REMARKS
OTTAWA         FOG       41  41 100 S3        30.01S VSB 3/4

______KEY______
VSB  - VISIBILITY IN MILES
WCI  - WIND CHILL INDEX
HX   - HEAT INDEX
$$
NNNN



USA.gov is the U.S. government's official web portal to all federal, state and local government web resources and services.